Flag for Brazil Weather past 2 weeks in Juiz de Fora, Minas Gerais, Brazil

Now
61 °F

Fog.


Feels Like: 61 °F
Forecast: 47 / 74 °F
Wind: 3 mph from South

Location: Galeao

Current Time: Aug 1, 2014 at 6:55:30 AM

Latest Report: Aug 1, 2014 at 6:00 AM


Visibility: 3 mi

Pressure: 30.09 "Hg

Humidity: 88%

Dew point: 57 °F

Location of Juiz de ForaLocation

Historic Weather in Juiz de Fora — Graph

°F

Juiz de Fora temperature yesterday

Maximum temperature yesterday: 81 °F (at 4:00 PM)
Minimum temperature yesterday: 57 °F (at 5:00 AM)
Average temperature yesterday: 66 °F

Past Weeks' High & Low Weather Summary

 TemperatureHumidityPressure
High97 °F (Jul 24, 2:00 PM)94% (Jul 25, 4:00 AM)30.45 "Hg (Jul 25, 4:00 AM)
Low57 °F (Jul 30, 5:00 AM)22% (Jul 24, 3:00 PM)29.86 "Hg (Jul 24, 5:00 PM)
Average68 °F71%30.17 "Hg
* Reported Jul 17 5:00 AM — Aug 1 5:00 AM, Juiz de Fora, Weather by CustomWeather, © 2014

Note: Actual official high and low records may vary slightly from our data, if they occured in-between our weather recording intervals... More about our weather records

Advertising

Juiz de Fora weather history for previous 24 hours

 ConditionsComfort  
Time TempWeatherWind HumidityBarometerVisibility
5:00 AM
Aug 1
61 °FFog.3 mph88%30.09 "Hg2 mi
4:00 AM61 °FClear.3 mph88%30.09 "Hg10 mi
3:00 AM63 °FClear.No wind88%30.09 "Hg10 mi
2:00 AM61 °FClear.No wind88%30.09 "Hg10 mi
1:00 AM64 °FClear.3 mph83%30.12 "Hg10 mi
12:00 AM64 °FClear.5 mph83%30.12 "Hg10 mi
11:00 PM
Jul 31
64 °FClear.No wind83%30.12 "Hg10 mi
9:00 PM66 °FClear.2 mph78%30.12 "Hg10 mi
8:00 PM68 °FClear.7 mph73%30.12 "Hg10 mi
7:00 PM70 °FClear.6 mph69%30.12 "Hg10 mi
6:00 PM70 °FPassing clouds.5 mph64%30.09 "HgN/A
5:00 PM73 °FPassing clouds.6 mph57%30.09 "HgN/A
4:00 PM81 °FPassing clouds.6 mph42%30.09 "HgN/A
3:00 PM75 °FPassing clouds.7 mph54%30.09 "HgN/A
2:00 PM73 °FPassing clouds.8 mph53%30.12 "HgN/A
1:00 PM73 °FPassing clouds.6 mph44%30.15 "HgN/A
12:00 PM72 °FSunny.2 mph65%30.18 "Hg10 mi
11:00 AM70 °FSunny.5 mph64%30.21 "Hg10 mi
10:00 AM66 °FPassing clouds.5 mph78%30.21 "Hg5 mi
9:00 AM63 °FFog.No wind83%30.21 "Hg2 mi
8:00 AM61 °FFog.3 mph88%30.18 "Hg2 mi
7:00 AM57 °FFog.2 mph94%30.18 "Hg2 mi
6:00 AM59 °FSnow. Fog.2 mph88%30.15 "Hg2 mi
Weather by CustomWeather, © 2014

See weather overviewHow to use our weather pages